Location: lozzo di cadore
(46.4899°N, 12.4508°E)
Time: 09:52:25
(UTC+01:00)

ISS - Visible Passes

Search period start: 29 November 2023 00:00
Search period end: 09 December 2023 00:00
Orbit: 416 x 418 km, 51.6° (Epoch: 29 November)

Date Brightness Start Highest point End Pass type
(mag) Time Alt. Az. Time Alt. Az. Time Alt. Az.
29 Nov -3.4 18:17:53 10° WNW 18:21:00 49° N 18:21:00 49° N visible
30 Nov -3.1 17:29:34 10° WNW 17:32:45 40° NNE 17:34:47 19° ENE visible
30 Nov -1.3 19:06:19 10° WNW 19:07:42 22° WNW 19:07:42 22° WNW visible
01 Dec -3.9 18:17:55 10° WNW 18:21:16 88° SSW 18:21:32 75° SE visible
02 Dec -3.8 17:29:29 10° WNW 17:32:50 65° NNE 17:35:29 15° ESE visible
02 Dec -1.2 19:06:34 10° W 19:08:25 21° WSW 19:08:25 21° WSW visible
03 Dec -2.5 18:17:52 10° WNW 18:21:01 39° SW 18:22:32 24° SSE visible
04 Dec -3.3 17:29:16 10° WNW 17:32:35 62° SSW 17:35:54 10° SE visible
04 Dec -0.5 19:08:15 10° WSW 19:08:43 10° SW 19:09:12 10° SW visible
05 Dec -0.8 18:18:10 10° W 18:20:25 17° SW 18:22:38 10° S visible
06 Dec -1.5 17:29:07 10° W 17:31:59 26° SW 17:34:50 10° SSE visible
08 Dec -0.2 17:29:58 10° WSW 17:31:01 11° SW 17:32:05 10° SSW visible
